Regional Weather Roundup
Issued by NWS

Home | Current Version | Previous Version | Text Only | Print | Product List | Glossary Off
Versions: 1 2 3 4 5 6 7 8 9 10 11 12 13 14 15 16 17 18 19 20 21 22 23 24 25 26 27 28 29 30 31 32 33 34 35 36 37 38 39 40 41 42 43 44 45 46 47 48 49 50

000
ASUS44 KOUN 070110
RWROK

WEATHER ROUNDUP FOR OKLAHOMA
NATIONAL WEATHER SERVICE NORMAN OK
800 PM CDT WED MAY 06 2015

NOTE: "FAIR" INDICATES FEW OR NO CLOUDS BELOW 12,000 FEET WITH NO
      SIGNIFICANT WEATHER AND/OR OBSTRUCTIONS TO VISIBILITY.

OKZ001>007-009>012-014-015-017-070200-
NORTHWEST OKLAHOMA AND THE PANHANDLE

CITY           SKY/WX    TMP DP  RH WIND       PRES   REMARKS
GAGE           PTCLDY    77  52  41 SW14      29.67S
GUYMON         CLEAR     76  47  35 S21       29.62F
ENID/WOODRING  MOCLDY    73  66  78 SE23G30   29.71F
$$

OKZ016-021>023-033>039-044-045-070200-
SOUTHWEST OKLAHOMA

CITY           SKY/WX    TMP DP  RH WIND       PRES   REMARKS
LAWTON/REGL    CLOUDY    76  68  76 S20G30    29.76R
LAWTON/FT SILL CLOUDY    74  69  84 S17G24    29.74F
FREDERICK      MOCLDY    70  60  70 S24G33    29.73R
CLINTON        CLEAR     77  65  66 S17G25    29.72R
HOBART         PTCLDY    74  68  81 S17       29.74R
ALTUS AFB      CLEAR     74  71  87 S14       29.73S
$$

OKZ018>020-024>031-070200-
CENTRAL OKLAHOMA

CITY           SKY/WX    TMP DP  RH WIND       PRES   REMARKS
OKLAHOMA CITY  TSTM      68  63  83 N20G60    29.81S VSB 1/4
OKC/WILEY POST TSTM      70  64  81 SE25G32   29.78S
OKC/TINKER AFB TSTM      68  64  88 NE14G20   29.80F FOG
STILLWATER     MOCLDY    73  65  75 SE21G33   29.75F
GUTHRIE        MOCLDY    73  62  68 S15G29    29.74F
$$

OKZ008-013-054>072-070200-
NORTHEAST OKLAHOMA

CITY           SKY/WX    TMP DP  RH WIND       PRES   REMARKS
TULSA          CLOUDY    74  64  71 SE22G32   29.82S
TULSA/JONES    LGT RAIN  74  65  73 S16G25    29.83F
PONCA CITY     CLOUDY    73  66  78 SE17G30   29.77R
BARTLESVILLE   PTCLDY    73  64  73 SE13G22   29.83S
MUSKOGEE       CLOUDY    73  63  70 SE10G20   29.89S
$$

OKZ032-040>043-046>053-073>077-070200-
SOUTH CENTRAL/SOUTHEAST OKLAHOMA

CITY           SKY/WX    TMP DP  RH WIND       PRES   REMARKS
ARDMORE/DWNTWN CLOUDY    73  64  73 S7        29.85R
MCALESTER      MOCLDY    75  65  70 SE9       29.91R
$$



USA.gov is the U.S. government's official web portal to all federal, state and local government web resources and services.